Location: Bratislava
(48.1500°N, 17.1170°E)
Time: 02:43:59
(UTC+01:00)

ISS - Visible Passes

Search period start: 16 December 2017 00:00
Search period end: 26 December 2017 00:00
Orbit: 402 x 406 km, 51.6° (Epoch: 16 December)

Date Brightness Start Highest point End Pass type
(mag) Time Alt. Az. Time Alt. Az. Time Alt. Az.
16 Dec -1.8 17:04:55 10° W 17:07:52 30° SW 17:10:47 10° SSE visible
18 Dec -0.6 16:57:30 10° W 16:59:33 16° SW 17:01:36 10° S visible
24 Dec 0.3 06:56:26 10° SE 06:56:48 10° SE 06:57:10 10° SE visible
